Preview of NWS' New Version of Forecast
This preview is not operational and should not be used for support decisions.

Regional Weather Roundup (RWR)

Issued by National Weather Service (NWS)

                            
000
ASUS42 KTBW 181616
RWRFL 
FLORIDA REGIONAL WEATHER ROUNDUP
NATIONAL WEATHER SERVICE TAMPA BAY RUSKIN FL
1200 PM EDT SAT MAY 18 2019

NOTE: "FAIR" INDICATES FEW OR NO CLOUDS BELOW 12,000 FEET WITH NO
SIGNIFICANT WEATHER AND/OR OBSTRUCTIONS TO VISIBILITY.

FLZ001>010-012>015-112-114-115-181700-
PANHANDLE FLORIDA
  
CITY           SKY/WX    TMP DP  RH WIND       PRES   REMARKS
PENSACOLA      FAIR      83  68  60 SE13      30.03R                  
PENSACOLA NAS  FAIR      82  72  71 S10       30.02S                  
MILTON NAS     FAIR      85  61  44 S14       30.03S                  
CRESTVIEW      FAIR      86  58  38 S12G17    30.05S                  
DUKE FIELD       N/A     86  59  40 S10       30.04R                  
MARY ESTHER    MOSUNNY   82  70  67 SE10      30.03R                  
PANAMA CITY    FAIR      85  64  49 S12G17    30.03F                  
APALACHICOLA   FAIR      83  70  64 E9        30.05F                  

STATION/POSITION SKY/WX   TEMP    WIND        PRES    WAVE   SWELL
                          AIR SEA DIR/SP/G            HT/PER HT/PER
                          (F)     (DEG/KT/KT) (MB)    (FT/S) (FT/S)
30.1N   87.6W                                   N/A     2/ 5
29.2N   88.2W                     120/ 14/ 16 1016.2S   3/ 5   2/ 7
PANAMA CITY BEAC           79 79  160/ 10/ 11 1017.9R
TOWER C          NOT AVBL

$$
FLZ011-016>038-118-127-128-134-139-239-181700-
NORTH FLORIDA
  
CITY           SKY/WX    TMP DP  RH WIND       PRES   REMARKS
MARIANNA       FAIR      86  63  45 VRB5      30.03F                  
TALLAHASSEE    FAIR      85  67  54 S5        30.05F                  
PERRY          FAIR      85  66  52 CALM      30.06F                  
LIVE OAK       SUNNY     84  64  51 CALM      30.05F                  
CROSS CITY     FAIR      85  66  53 E7        30.05F                  
GAINESVILLE    FAIR      87  61  41 CALM      30.08F                  
WILLISTON      FAIR      84  60  43 NE3       30.06F                  
PALATKA        FAIR     N/A N/A N/A E3        30.06F                  
MAYPORT NAS      N/A    N/A N/A N/A MISG      30.06S                  
JACKSONVILLE   FAIR      85  65  51 VRB3      30.05S                  
JAX NAS        FAIR      84  60  44 SE10      30.07S                  
JAX CECIL      MOSUNNY   90  59  35 CALM      30.06F                  
FERNANDINA BEA FAIR      83  64  52 S5        30.06S                  
ST AUGUSTINE   PTSUNNY   83  61  47 VRB3      30.08S                  
PALM COAST     MOSUNNY   82  63  51 CALM      30.07F                  

STATION/POSITION SKY/WX   TEMP    WIND        PRES    WAVE   SWELL
                          AIR SEA DIR/SP/G            HT/PER HT/PER
                          (F)     (DEG/KT/KT) (MB)    (FT/S) (FT/S)
SHELL POINT      NOT AVBL
KEATON BEACH               79     210/  6/  8 1018.0F
CEDAR KEY                  77     160/  4/  5 1017.9F
FERNANDINA                 86 79  280/  3/  4 1018.5S
30.7N   81.3W                 78                N/A     2/15   2/15
MAYPORT                    81 79  220/  4/  5 1018.2F
31.4N   80.9W              76 76  210/ 10/ 10 1017.8R   2/ 5   2/ 5
ST AUGUSTINE               77 79  130/  7/  8 1018.5F

$$
FLZ040-043>046-052-053-057-058-063-144-181700-
INTERIOR CENTRAL FLORIDA
  
CITY           SKY/WX    TMP DP  RH WIND       PRES   REMARKS
OCALA          FAIR      83  61  47 SE6       30.07F                  
LEESBURG       FAIR      83  57  41 VRB6      30.07F                  
SANFORD        FAIR      83  61  47 E8        30.06F                  
ORLANDO EXEC   FAIR      83  60  45 E8        30.06S                  
ORLANDO INTL   FAIR      83  62  49 NE6       30.05F                  
KISSIMMEE      FAIR      82  62  50 E12       30.07S                  
WINTER HAVEN   FAIR      84  61  45 E8        30.06F                  
LAKELAND       SUNNY     82  61  47 SE6       30.06S                  
BARTOW         SUNNY     84  59  42 NE8       30.05S                  
SEBRING        FAIR      84  62  47 NE8       30.05F                  
OKEECHOBEE     FAIR      81  63  54 NE3       30.04S                  

$$
FLZ041-047-054-059-064-141-147-181700-
EAST CENTRAL FLORIDA
  
CITY           SKY/WX    TMP DP  RH WIND       PRES   REMARKS
ORMOND BEACH   MOSUNNY   81  63  54 E6        30.07F                  
DAYTONA BEACH  PTSUNNY   82  63  52 E8        30.07F                  
DELAND         PTSUNNY   82  61  47 SE9       30.06F                  
NEW SMYRNA BEA MOSUNNY   82  63  51 E7        30.08F                  
TITUSVILLE     MOSUNNY   84  57  39 E8        30.07F                  
CAPE CANAVERAL FAIR      80  52  36 E10       30.06S                  
PATRICK AFB    FAIR      80  63  54 NE9       30.06S                  
MELBOURNE      FAIR      81  62  52 NE13      30.06S                  
VERO BEACH     FAIR      81  63  54 NE8G17    30.06S                  
FT PIERCE      FAIR      81  63  54 NE7       30.05S                  
STUART         MOSUNNY   82  64  54 E10       30.06S                  

STATION/POSITION SKY/WX   TEMP    WIND        PRES    WAVE   SWELL
                          AIR SEA DIR/SP/G            HT/PER HT/PER
                          (F)     (DEG/KT/KT) (MB)    (FT/S) (FT/S)
28.5N   80.2W              77      90/  6/  8 1018.7
28.9N   78.5W              77 79   40/  6/  8 1018.7F   2/15   2/15
TRIDENT PIER               79 80   80/  7/  9 1019.7R
28.4N   80.5W                 79                N/A     1/13
27.5N   80.2W                 79                N/A     2/14   2/14

$$
FLZ050-056-061-142-242-148-248-149-249-151-251-155-255-
160-260-181700-
WEST CENTRAL FLORIDA
  
CITY           SKY/WX    TMP DP  RH WIND       PRES   REMARKS
CRYSTAL RIVER  FAIR      86  61  42 E5        30.06S                  
INVERNESS      FAIR      82  64  54 E5        30.06F                  
BROOKSVILLE    FAIR      85  62  46 E6        30.06F                  
CLEARWATER AIR FAIR      81  57  44 E5        30.04F                  
ST PETE CLEARW FAIR      81  60  48 E5        30.05S                  
TAMPA INTL     FAIR      85  59  41 VRB5      30.05F                  
TAMPA EXEC     FAIR      86  61  42 E6        30.06S                  
PLANT CITY     FAIR      86  59  39 CALM      30.07F                  
MACDILL AFB    FAIR      83  60  45 SE3       30.04F                  
PETER O KNIGHT PTSUNNY   86  61  42 NE5       30.05F                  
ST PETERSBURG  FAIR      80  67  64 E3        30.03F                  
SARASOTA       FAIR      87  58  37 E7G17     30.03S                  
VENICE         FAIR      86  63  45 CALM      30.04F                  

STATION/POSITION SKY/WX   TEMP    WIND        PRES    WAVE   SWELL
                          AIR SEA DIR/SP/G            HT/PER HT/PER
                          (F)     (DEG/KT/KT) (MB)    (FT/S) (FT/S)
27.3N   84.2W                 78                N/A     3/ 5
CLEARWATER BEACH           82 82   80/  3/  8 1017.6F
MIDDLE TAMPA BAY           78      20/  6/  8 1017.8R
VENICE                     81 81   50/  3/  4 1017.2R

$$
FLZ066-069-070-075>078-162-262-165-265-181700-
SOUTHWEST FLORIDA AND KEYS
  
CITY           SKY/WX    TMP DP  RH WIND       PRES   REMARKS
PUNTA GORDA    FAIR      84  61  45 VRB7      30.05S                  
FT MYERS       FAIR      83  60  45 E8        30.02S                  
SOUTHWEST INTL FAIR      86  60  41 E10       30.02F                  
NAPLES         FAIR      85  63  47 E8        30.01S                  
MARCO ISLAND   FAIR      86  66  51 E8        30.03S                  
IMMOKALEE      FAIR      86  64  48 NE8       30.01S                  
MARATHON       FAIR      88  71  57 E9        29.99S                  
KEY WEST NAS   FAIR      87  72  60 E12       29.99F                  
KEY WEST INTL  FAIR      85  72  65 E13       30.00S                  

STATION/POSITION SKY/WX   TEMP    WIND        PRES    WAVE   SWELL
                          AIR SEA DIR/SP/G            HT/PER HT/PER
                          (F)     (DEG/KT/KT) (MB)    (FT/S) (FT/S)
NAPLES                     84 82              1016.5S
DRY TORTUGAS               80      80/ 15/ 16 1015.9F
SAND KEY                   81                 1015.7S
SOMBRERO KEY               81                 1015.2F

$$
FLZ067-068-071>074-168-172>174-181700-
SOUTHEAST FLORIDA 
  
CITY           SKY/WX    TMP DP  RH WIND       PRES   REMARKS
W PALM BEACH   FAIR      82  66  58 NE12G20   30.04S                  
BOCA RATON     MOSUNNY   86  72  62 E9        30.04R                  
FT LAUDER-EXEC FAIR      86  68  54 E14       30.03R                  
FT LAUDERDALE  FAIR      84  70  62 E14       30.02S                  
POMPANO BEACH  FAIR      83  69  62 E14       30.03S                  
PEMBROKE PINES PTSUNNY   81  68  64 E16       30.03F                  
OPA LOCKA      FAIR      86  69  56 E14       30.03S                  
MIAMI          PTSUNNY   86  69  56 E14       30.02S                  
WEST KENDALL   PTSUNNY   87  68  52 E14       30.01S                  
HOMESTEAD      NOT AVBL                                               

STATION/POSITION SKY/WX   TEMP    WIND        PRES    WAVE   SWELL
                          AIR SEA DIR/SP/G            HT/PER HT/PER
                          (F)     (DEG/KT/KT) (MB)    (FT/S) (FT/S)
VIRGINIA KEY               81 82   70/  8/ 11 1016.2R
LAKE WORTH                 79 81              1018.4R
SETTLEMENT POINT           78      50/  9/ 11 1017.5F

$$